Regional Weather Roundup
Issued by NWS

Home | Current Version | Previous Version | Text Only | Print | Product List | Glossary On
Versions: 1 2 3 4 5 6 7 8 9 10 11 12 13 14 15 16 17 18 19 20 21 22 23 24 25 26 27 28 29 30 31 32 33 34 35 36 37 38 39 40 41 42 43 44 45 46 47 48 49 50
000
ASUS44 KLIX 011910
RWRLA
LOUISIANA WEATHER ROUNDUP
NATIONAL WEATHER SERVICE NEW ORLEANS LA
100 PM CST SUN MAR 01 2015

NOTE: "FAIR" INDICATES FEW OR NO CLOUDS BELOW 12,000 FEET WITH NO
      SIGNIFICANT WEATHER AND/OR OBSTRUCTIONS TO VISIBILITY.
      SKY/WX - SKY CONDITION AND SIGNIFICANT WEATHER.
      TMP - AIR TEMPERATURE.    DP   - DEWPOINT TEMPERATURE.
      RH  - RELATIVE HUMIDITY.  PRES - PRESSURE.
      HX  - HEAT INDEX.         WCI  - WIND CHILL INDEX.

*  THESE STATIONS ARE NOT NWS OR FAA STATIONS AND ARE NOT UNDER
   NWS QUALITY CONTROL.

LAZ040-048-061>063-065-066-069-012000-
SOUTHEAST LOUISIANA

CITY           SKY/WX    TMP DP  RH WIND       PRES   REMARKS
N.O. AUDUBON     N/A     67  65  95 MISG        N/A
N.O. INTL ARPT CLOUDY    64  59  83 E7        30.27F HAZE
N.O. LAKEFRONT FOG       60  56  86 E10       30.28F VSB 1
SLIDELL        CLOUDY    61  58  90 E10       30.29F
BATON ROUGE    CLOUDY    64  59  83 E8        30.27F
BOOTHVILLE     CLOUDY    68  65  90 E10       30.27F
BELLE CHASSE   CLOUDY    67  62  84 E10       30.27F FOG
BOGALUSA*        N/A     65  57  75 SE8       30.31F
GALLIANO*      PTCLDY    76  66  71 MISG      30.26F
NEW ROADS*     CLOUDY    65  61  88 SE7       30.27F
GONZALES*      CLOUDY    61  61 100 NE6       30.26F FOG
HAMMOND*       CLOUDY    68  61  77 SE14      30.28F
HOUMA*         PTSUNNY   79  68  69 SE17      30.25F
PORT FOURCHON* PTCLDY    70  66  88 E10       30.28F FOG

$$

LAZ041-044-053-054-012000-
SOUTHWEST LOUISIANA

CITY           SKY/WX    TMP DP  RH WIND       PRES   REMARKS
LAKE CHARLES   LGT RAIN  68  67  96 S9G23     30.20F FOG
LAFAYETTE      PTSUNNY   72  65  78 VRB6      30.23F
PATTERSON      PTSUNNY   75  66  73 S15G23    30.25F
SALT POINT       N/A     74  66  76 SE12G20   30.22F
NEW IBERIA     CLOUDY    74  66  76 S18       30.23F
CHENAULT AIRPK CLOUDY    70  66  88 SE10      30.21F

$$

LAZ027-028-012000-
CENTRAL LOUISIANA

CITY           SKY/WX    TMP DP  RH WIND       PRES   REMARKS
FORT POLK      CLOUDY    59  59 100 E6        30.22F FOG
ALEXANDRIA INT HVY RAIN  56  56 100 NW8       30.27R VSB 3/4
ALEXANDRIA     HVY RAIN  60  57  89 VRB3      30.25F

$$

LAZ001-002-012000-
NORTHWEST LOUISIANA

CITY           SKY/WX    TMP DP  RH WIND       PRES   REMARKS
SHREVEPORT     FOG       41  41 100 N8        30.29F VSB 1
BARKSDALE AFB  CLOUDY    40  40  99 N3        30.29F
DTN SHREVEPORT CLOUDY    41  38  89 N5        30.30F FOG

$$

LAZ014-016-012000-
NORTHEAST LOUISIANA

CITY           SKY/WX    TMP DP  RH WIND       PRES   REMARKS
MONROE         LGT RAIN  46  45  96 N8        30.29F FOG
TALLULAH       LGT RAIN  57  55  93 CALM      30.27F FOG

$$



USA.gov is the U.S. government's official web portal to all federal, state and local government web resources and services.